CZ-6A DEB, 54613

Orbit data source: Space-Track

CZ-6A DEB, 54613 is space debris in SSO originally from a launch on Fri, 11 Nov 2022 UTC launched from the Taiyaun Space Center, China (TSC). Debris objects in space refer to the collection of defunct objects orbiting the Earth. Examples of debris include non-operational satellites, rocket bodies, and fragments generated from explosions, collisions, or faulty payload assembly.

Loading next visibility...
Identifier
54613, 2022-151NP
Orbit
SSO
Country
Flag of CNCN / PRC
Related business
Manufacturer
SAST
Mission
Spacecraft
Bus & Motor
Unknown
Mass
Unknown
Launch date (UTC)
2022-11-11 (3 years ago)
Launch vehicle
Unknown
Launch site
Taiyaun Space Center, China (TSC)
Object type
Payload
Rocket body
Debris
Shape & HBR
Unknown shape, 0.1 m
Radar Cross Section
Small (<0.1 m²)

Expand to show TLE details & history
Last TLE update: 14 hours ago

TLE from 14 hours ago
0 CZ-6A DEB
1 54613U 22151NP  25354.91471319  .00000384  00000-0  24174-3 0  9990
2 54613  98.8391 351.1239 0051801 104.2759 256.4171 14.09387760159079
Epoch: 2025-12-20T21:57Z
TLE epoch observation values (Epoch: 2025-12-20T21:57:11.219Z)
Latitude
-0.00008°
Longitude
-67.90751°
Altitude
873.356 km
Speed
7.411 km/s
True Right ascension
23h 24m 29s
True Declination
0° 00' 00"
Sunlit
Object was in daylight at epoch
Visualization orbit readout
Latitude
Unknown
Longitude
Unknown
Altitude
Unknown
Speed
Unknown
Apparent Right ascension
Unknown
Apparent Declination
Unknown
Sunlit
N/A
Visualization observer readout
Local Sidereal Time
10:48:49
Azimuth
Unknown
Elevation
Unknown
Doppler factor
Unknown
Orbital elements
Apogee altitude
896.134 km
Perigee altitude
821.159 km
Semi-major axis
7,236.783 km
Eccentricity
0.00518
Inclination
98.8391°
RAAN
351.1239°
Arg. of periapsis
104.2759°
True anomaly
255.84099°
Mean anomaly
256.4171°
Eccentric anomaly
256.12896°
Mean motion
3.52553 °/min
Orbital period
102.11 mins
BSTAR
0.00024174
Loading maneuver chart data...
Computing Atmospheric mass density...
Loading historical data...
Loading historical data...
Loading historical data...
Loading historical data...
Loading historical data...
Loading historical data...
Loading historical data...

Documentation

Showing up to 5 results
|